Location: Ripley
(48.3812°N, 115.4473°W)
Time: 18:45:14
(UTC+00:00)

EO-88 - Pass Details

Date: 05 July 2022
Orbit: 454 x 462 km, 97.3° (Epoch: 07 August)

Event Time Altitude Azimuth Distance (km) Brightness Sun altitude
Exits shadow 05:42:16 11° 204° (SSW) 1,571 ? -13.6°
Maximum altitude 05:45:11 28° 264° (W) 907 ? -13.8°
Drops below altitude 10° 05:48:15 10° 326° (NW) 1,631 ? -14.1°
Sets 05:50:31 0° 338° (NNW) 2,511 ? -14.3°
